CW3577 Weather Reports


Display with metric or nautical units.
time (UTC)temp
F
wind
direction
speed
MPH
gust
MPH
rain 1hr
in
rain 24hr
in
rain mn
in
humidity
%
barometer
mb
20260902031534 63 157 0.0 1.0 0.00 0.32 0.32 94 1019.7
20260902030104 63 157 0.0 1.0 0.00 0.32 0.32 94 1019.7
20260902024530 63 157 0.0 1.0 0.00 0.32 0.32 94 1019.7
20260902023104 63 157 0.0 1.0 0.00 0.32 0.32 94 1020.0
20260902021523 63 157 0.0 1.0 0.00 0.32 0.32 94 1020.0
20260902020058 63 157 0.0 1.0 0.00 0.32 0.32 94 1019.9
20260902014515 63 157 0.0 1.0 0.00 0.32 0.32 94 1019.9
20260902013050 63 157 0.0 1.0 0.00 0.32 0.32 94 1019.9
20260902011508 63 157 0.0 2.0 0.00 0.32 0.32 94 1019.8
20260902010043 63 157 0.0 0.0 0.00 0.32 0.32 94 1019.9
20260902004554 63 157 0.0 1.0 0.00 0.32 0.32 94 1019.5
20260902003036 63 157 0.0 1.0 0.00 0.32 0.32 94 1019.5
20260902001547 63 157 0.0 1.0 0.00 0.32 0.32 94 1019.3
20260901234546 63 157 0.0 0.0 0.00 0.32 0.32 93 1019.2
20260901233001 63 157 0.0 1.0 0.00 0.32 0.32 93 1019.3
20260901231543 63 157 0.0 0.0 0.00 0.32 0.32 93 1019.3
20260901230009 63 157 0.0 2.0 0.00 0.32 0.32 93 1019.1
20260901224538 63 157 0.0 1.0 0.00 0.32 0.32 93 1019.1
20260901223111 63 157 0.0 1.0 0.00 0.32 0.32 92 1019.2
20260901221526 63 157 0.0 2.0 0.00 0.32 0.32 92 1019.1
20260901220059 63 157 0.0 2.0 0.00 0.32 0.32 91 1019.1
20260901214529 63 151 1.0 5.0 0.00 0.32 0.32 91 1018.8
20260901213051 64 174 2.0 5.0 0.00 0.32 0.32 92 1018.8
20260901211510 64 167 1.0 4.0 0.00 0.32 0.32 92 1018.8
20260901210109 64 172 1.0 6.0 0.01 0.32 0.32 92 1018.6
20260901204517 65 186 2.0 5.0 0.01 0.32 0.32 94 1018.5
20260901203107 65 111 1.0 4.0 0.02 0.32 0.32 93 1018.3
20260901201603 65 70 1.0 7.0 0.03 0.32 0.32 93 1018.1
20260901200055 66 69 2.0 6.0 0.03 0.31 0.31 93 1018.1
20260901194504 66 77 1.0 6.0 0.05 0.31 0.31 93 1018.1
20260901193048 66 70 1.0 7.0 0.07 0.30 0.30 93 1018.2
20260901191508 66 109 0.0 3.0 0.08 0.28 0.28 94 1018.1
20260901190109 65 69 1.0 4.0 0.08 0.28 0.28 93 1018.2
20260901184510 65 104 0.0 4.0 0.06 0.26 0.26 93 1018.2
20260901183044 65 51 1.0 5.0 0.03 0.23 0.23 93 1018.3
20260901181556 65 101 1.0 3.0 0.01 0.21 0.21 94 1018.3
20260901180025 64 85 2.0 6.0 0.01 0.20 0.20 93 1018.1
20260901174538 64 94 2.0 9.0 0.01 0.20 0.20 93 1017.8
20260901173006 64 101 4.0 9.0 0.01 0.20 0.20 93 1017.8
20260901171530 64 117 4.0 9.0 0.01 0.20 0.20 92 1017.9
20260901170105 64 78 2.0 5.0 0.00 0.19 0.19 93 1017.9
20260901164522 64 72 2.0 7.0 0.00 0.19 0.19 92 1018.1
20260901163057 64 82 2.0 4.0 0.00 0.19 0.19 93 1018.2
20260901161525 65 60 1.0 5.0 0.00 0.19 0.19 93 1018.3
20260901160059 65 58 1.0 4.0 0.00 0.19 0.19 93 1017.9
20260901154531 64 105 3.0 9.0 0.00 0.19 0.19 93 1017.9
20260901153104 64 75 2.0 9.0 0.00 0.19 0.19 93 1017.9
20260901151524 65 88 2.0 5.0 0.00 0.19 0.19 93 1018.1
20260901150106 65 89 1.0 4.0 0.00 0.19 0.19 93 1018.2
20260901144517 64 96 0.0 3.0 0.00 0.19 0.19 93 1017.9
20260901143107 65 96 2.0 6.0 0.00 0.19 0.19 92 1017.9
20260901141512 65 94 0.0 6.0 0.00 0.19 0.19 93 1018.0
20260901140058 65 101 0.0 6.0 0.02 0.19 0.19 93 1017.9
20260901134524 65 82 4.0 9.0 0.05 0.19 0.19 93 1017.9
20260901133107 66 84 0.0 5.0 0.10 0.19 0.19 93 1018.1
20260901131518 66 24 0.0 2.0 0.14 0.19 0.19 93 1018.3
20260901124521 66 44 1.0 4.0 0.12 0.14 0.14 93 1018.2
20260901123054 66 232 0.0 2.0 0.07 0.09 0.09 92 1018.5
20260901121513 66 227 0.0 2.0 0.02 0.04 0.04 92 1018.4
20260901120058 66 223 0.0 2.0 0.00 0.02 0.02 92 1018.4
20260901114602 66 223 0.0 1.0 0.01 0.02 0.02 92 1018.3
20260901113052 66 223 0.0 2.0 0.01 0.02 0.02 91 1018.4
20260901111554 66 222 0.0 2.0 0.01 0.02 0.02 91 1018.3
20260901110013 66 222 0.0 2.0 0.02 0.02 0.02 90 1018.1
20260901104544 66 222 0.0 2.0 0.01 0.01 0.01 89 1017.9
20260901103015 66 219 0.0 1.0 0.01 0.01 0.01 88 1017.7
20260901101547 66 196 2.0 5.0 0.01 0.01 0.01 87 1017.6
20260901100019 67 198 1.0 7.0 0.00 0.00 0.00 85 1017.5
20260901094540 67 196 1.0 3.0 0.00 0.00 0.00 82 1017.5
20260901093007 67 190 1.0 5.0 0.00 0.00 0.00 81 1017.4
20260901091552 67 192 1.0 3.0 0.00 0.00 0.00 80 1017.4
20260901084537 67 183 0.0 1.0 0.00 0.00 0.00 79 1017.4
20260901083005 67 183 1.0 3.0 0.00 0.00 0.00 79 1017.3
20260901081537 67 183 2.0 4.0 0.00 0.00 0.00 79 1017.4
20260901080106 67 184 1.0 4.0 0.00 0.00 0.00 79 1017.4
20260901074533 67 184 0.0 2.0 0.00 0.00 0.00 80 1017.5
20260901073053 67 184 0.0 2.0 0.00 0.00 0.00 79 1017.8
20260901071525 67 181 0.0 2.0 0.00 0.00 0.00 80 1017.7
20260901070009 67 182 0.0 1.0 0.00 0.00 0.00 80 1017.9
20260901064536 67 182 0.0 2.0 0.00 0.00 0.00 79 1018.1
20260901063102 67 181 0.0 2.0 0.00 0.00 0.00 80 1018.0
20260901061527 67 181 1.0 3.0 0.00 0.00 0.00 80 1018.0
20260901060049 67 188 0.0 2.0 0.00 0.00 0.00 82 1018.2
20260901054554 67 188 0.0 1.0 0.00 0.00 0.00 82 1018.2
20260901053026 67 188 0.0 3.0 0.00 0.00 0.00 83 1018.1
20260901051540 67 188 0.0 1.0 0.00 0.00 0.00 84 1018.3
20260901050105 67 188 0.0 2.0 0.00 0.00 0.00 84 1018.2
20260901044533 67 188 0.0 2.0 0.00 0.00 0.00 83 1018.2
20260901043124 67 188 0.0 2.0 0.00 0.00 0.00 83 1018.1
20260901041527 67 188 0.0 2.0 0.00 0.00 0.00 83 1018.3
20260901040125 67 188 0.0 1.0 0.00 0.00 0.00 82 1018.1
20260901034520 67 188 0.0 2.0 0.00 0.00 0.00 82 1018.2
20260901033110 67 188 0.0 1.0 0.00 0.00 0.00 82 1018.3